Showing default

GONETS M 10 (M20), 40063

Orbit data source: Space-Track

GONETS M 10 (M20), 40063 is a payload satellite owned by Gonets (CIS) in LEO that was launched on Thu, 03 Jul 2014 UTC via an ROKOT launch vehicle from the Plesetsk Missile And Space Complex (PKMTR). Payload-class satellites include a variety of spacecraft equipped with specific instruments for various scientific and technological missions. These include communications satellites like Starlink; space stations such as the ISS; scientific satellites like the Hubble; Earth observation satellites from companies like Planet Labs, Umbra, and HawkEye 360; GPS; miniature CubeSats for education and research; and military/defense satellites.

Loading next visibility...
Identifier
40063, 2014-036C
Orbit
LEO
Country
Flag of CISCIS
Related business
Manufacturer
Resehetnev ISS
Mission
Operational Civil Communications
Bus & Motor
STRELA-3M, Unknown motor
Mass
280 kg wet, 280 kg dry
Launch date (UTC)
2014-07-03 (12 years ago)
Launch vehicle
ROKOT
Launch site
Plesetsk Missile And Space Complex (PKMTR)
Object type
Payload
Rocket body
Debris
Shape & HBR
Cyl + 1 Ant, 3.5 m
Radar Cross Section
1.798 m², Large (>1 m²)

Expand to show TLE details & history
Last TLE update: 23 hours ago

TLE from 23 hours ago
0 GONETS M 10 (M20)
1 40063U 14036C   26172.49758817  .00000081  00000-0  51274-3 0  9995
2 40063  82.5120 304.9968 0022805 131.5842 228.7198 12.42945856542782
Epoch: 2026-06-21T11:56Z
TLE epoch observation values (Epoch: 2026-06-21T11:56:31.617Z)
Latitude
0.00004°
Longitude
-143.83194°
Altitude
1,508.709 km
Speed
7.105 km/s
True Right ascension
20h 19m 59s
True Declination
0° 00' 00"
Sunlit
Object was in full shadow at epoch
Visualization orbit readout
Latitude
Unknown
Longitude
Unknown
Altitude
Unknown
Speed
Unknown
Apparent Right ascension
Unknown
Apparent Declination
Unknown
Sunlit
N/A
Visualization observer readout
Local Sidereal Time
21:38:28
Azimuth
Unknown
Elevation
Unknown
Doppler factor
Unknown
Orbital elements
Apogee altitude
1,509.437 km
Perigee altitude
1,473.544 km
Semi-major axis
7,869.628 km
Eccentricity
0.00228
Inclination
82.512°
RAAN
304.9968°
Arg. of periapsis
131.5842°
True anomaly
228.52378°
Mean anomaly
228.7198°
Eccentric anomaly
228.62176°
Mean motion
3.10894 °/min
Orbital period
115.8 mins
BSTAR
0.00051274
Loading maneuver chart data...
Computing Atmospheric mass density...
Loading historical data...
Loading historical data...
Loading historical data...
Loading historical data...
Loading historical data...
Loading historical data...
Loading historical data...
Other satellites on launch #36 in the year 2014 (2014-07-03 UTC)

Documentation

Showing up to 5 results
|